Time,TemperatureF,DewpointF,PressureIn,WindDirection,WindDirectionDegrees,WindSpeedMPH,WindSpeedGustMPH,Humidity,HourlyPrecipIn,Conditions,Clouds,dailyrainin,SoftwareType,DateUTC
2013-04-04 00:00:00,31.1,20.0,30.34,WSW,244,3.0,9.0,63,0.00,,,0.00,Wunderground v.1.15,2013-04-04 04:00:00,
2013-04-04 00:01:00,31.0,19.9,30.34,West,279,8.0,8.0,63,0.00,,,0.00,Wunderground v.1.15,2013-04-04 04:01:00,
2013-04-04 00:03:00,31.0,19.9,30.34,SW,235,2.0,8.0,63,0.00,,,0.00,Wunderground v.1.15,2013-04-04 04:03:00,
2013-04-04 00:05:00,31.0,19.9,30.34,SSW,211,3.0,8.0,63,0.00,,,0.00,Wunderground v.1.15,2013-04-04 04:05:00,
2013-04-04 00:10:00,31.0,19.9,30.34,WSW,257,3.0,4.0,63,0.00,,,0.00,Wunderground v.1.15,2013-04-04 04:10:00,
2013-04-04 00:15:00,30.9,20.1,30.34,WNW,290,3.0,9.0,64,0.00,,,0.00,Wunderground v.1.15,2013-04-04 04:15:00,
2013-04-04 00:21:00,30.7,20.3,30.34,West,262,4.0,4.0,65,0.00,,,0.00,Wunderground v.1.15,2013-04-04 04:21:00,
2013-04-04 00:26:00,30.7,20.3,30.34,WSW,249,2.0,4.0,65,0.00,,,0.00,Wunderground v.1.15,2013-04-04 04:26:00,
2013-04-04 00:32:00,30.7,20.7,30.34,West,266,3.0,6.0,66,0.00,,,0.00,Wunderground v.1.15,2013-04-04 04:32:00,
2013-04-04 00:37:00,30.6,20.6,30.35,West,275,2.0,7.0,66,0.00,,,0.00,Wunderground v.1.15,2013-04-04 04:37:00,
2013-04-04 00:43:00,30.7,20.7,30.34,SW,234,5.0,6.0,66,0.00,,,0.00,Wunderground v.1.15,2013-04-04 04:43:00,
2013-04-04 00:48:00,30.7,21.0,30.34,WSW,245,4.0,6.0,67,0.00,,,0.00,Wunderground v.1.15,2013-04-04 04:48:00,
2013-04-04 00:53:00,30.7,20.7,30.34,West,272,4.0,6.0,66,0.00,,,0.00,Wunderground v.1.15,2013-04-04 04:53:00,
2013-04-04 00:59:00,30.6,20.6,30.34,WSW,257,3.0,6.0,66,0.00,,,0.00,Wunderground v.1.15,2013-04-04 04:59:00,
2013-04-04 01:05:00,30.6,20.6,30.34,WNW,296,5.0,5.0,66,0.00,,,0.00,Wunderground v.1.15,2013-04-04 05:05:00,
2013-04-04 01:12:00,30.4,20.4,30.34,WSW,239,4.0,4.0,66,0.00,,,0.00,Wunderground v.1.15,2013-04-04 05:12:00,
2013-04-04 01:18:00,30.3,20.6,30.34,West,266,3.0,4.0,67,0.00,,,0.00,Wunderground v.1.15,2013-04-04 05:18:00,
2013-04-04 01:24:00,30.1,20.5,30.34,SW,232,4.0,4.0,67,0.00,,,0.00,Wunderground v.1.15,2013-04-04 05:24:00,
2013-04-04 01:29:00,29.9,20.3,30.34,WSW,257,2.0,4.0,67,0.00,,,0.00,Wunderground v.1.15,2013-04-04 05:29:00,
2013-04-04 01:35:00,29.7,20.4,30.33,West,259,1.0,2.0,68,0.00,,,0.00,Wunderground v.1.15,2013-04-04 05:35:00,
2013-04-04 01:42:00,29.5,20.2,30.33,West,280,0.0,2.0,68,0.00,,,0.00,Wunderground v.1.15,2013-04-04 05:42:00,
2013-04-04 01:47:00,29.4,20.1,30.33,West,280,1.0,2.0,68,0.00,,,0.00,Wunderground v.1.15,2013-04-04 05:47:00,
2013-04-04 01:53:00,29.4,20.1,30.33,West,273,4.0,4.0,68,0.00,,,0.00,Wunderground v.1.15,2013-04-04 05:53:00,
2013-04-04 01:58:00,29.4,20.1,30.33,West,279,1.0,4.0,68,0.00,,,0.00,Wunderground v.1.15,2013-04-04 05:58:00,
2013-04-04 02:03:00,29.2,20.3,30.33,West,279,0.0,2.0,69,0.00,,,0.00,Wunderground v.1.15,2013-04-04 06:03:00,
2013-04-04 02:08:00,29.0,20.1,30.33,West,277,1.0,4.0,69,0.00,,,0.00,Wunderground v.1.15,2013-04-04 06:08:00,
2013-04-04 02:13:00,28.9,20.0,30.33,West,277,2.0,2.0,69,0.00,,,0.00,Wunderground v.1.15,2013-04-04 06:13:00,
2013-04-04 02:18:00,28.8,19.9,30.33,West,277,3.0,3.0,69,0.00,,,0.00,Wunderground v.1.15,2013-04-04 06:18:00,
2013-04-04 02:23:00,28.8,19.9,30.32,WNW,283,2.0,5.0,69,0.00,,,0.00,Wunderground v.1.15,2013-04-04 06:23:00,
2013-04-04 02:28:00,28.6,20.1,30.32,WNW,283,1.0,5.0,70,0.00,,,0.00,Wunderground v.1.15,2013-04-04 06:28:00,
2013-04-04 02:33:00,28.4,19.9,30.32,WNW,283,0.0,2.0,70,0.00,,,0.00,Wunderground v.1.15,2013-04-04 06:33:00,
2013-04-04 02:38:00,28.3,19.8,30.32,WNW,283,1.0,3.0,70,0.00,,,0.00,Wunderground v.1.15,2013-04-04 06:38:00,
2013-04-04 02:43:00,28.2,20.0,30.32,WNW,283,1.0,4.0,71,0.00,,,0.00,Wunderground v.1.15,2013-04-04 06:43:00,
2013-04-04 02:49:00,28.2,19.7,30.32,SW,229,2.0,4.0,70,0.00,,,0.00,Wunderground v.1.15,2013-04-04 06:49:00,
2013-04-04 02:54:00,28.2,20.0,30.33,SSW,206,1.0,3.0,71,0.00,,,0.00,Wunderground v.1.15,2013-04-04 06:54:00,
2013-04-04 02:59:00,28.1,19.9,30.33,WSW,254,1.0,3.0,71,0.00,,,0.00,Wunderground v.1.15,2013-04-04 06:59:00,
2013-04-04 03:04:00,28.1,19.9,30.33,WSW,254,0.0,2.0,71,0.00,,,0.00,Wunderground v.1.15,2013-04-04 07:04:00,
2013-04-04 03:09:00,28.0,19.8,30.33,WSW,254,1.0,2.0,71,0.00,,,0.00,Wunderground v.1.15,2013-04-04 07:09:00,
2013-04-04 03:14:00,28.0,19.8,30.33,SSW,201,0.0,3.0,71,0.00,,,0.00,Wunderground v.1.15,2013-04-04 07:14:00,
2013-04-04 03:19:00,27.9,19.7,30.33,WSW,247,0.0,5.0,71,0.00,,,0.00,Wunderground v.1.15,2013-04-04 07:19:00,
2013-04-04 03:24:00,27.7,19.5,30.33,WSW,247,1.0,2.0,71,0.00,,,0.00,Wunderground v.1.15,2013-04-04 07:24:00,
2013-04-04 03:29:00,27.7,19.5,30.33,WSW,240,1.0,4.0,71,0.00,,,0.00,Wunderground v.1.15,2013-04-04 07:29:00,
2013-04-04 03:34:00,27.6,19.8,30.33,WSW,240,1.0,3.0,72,0.00,,,0.00,Wunderground v.1.15,2013-04-04 07:34:00,
2013-04-04 03:39:00,27.5,19.7,30.33,SW,236,0.0,3.0,72,0.00,,,0.00,Wunderground v.1.15,2013-04-04 07:39:00,
2013-04-04 03:45:00,27.5,19.7,30.33,West,277,4.0,4.0,72,0.00,,,0.00,Wunderground v.1.15,2013-04-04 07:45:00,
2013-04-04 03:50:00,27.5,19.7,30.33,WSW,257,2.0,2.0,72,0.00,,,0.00,Wunderground v.1.15,2013-04-04 07:50:00,
2013-04-04 03:55:00,27.5,19.7,30.33,SW,229,1.0,4.0,72,0.00,,,0.00,Wunderground v.1.15,2013-04-04 07:55:00,
2013-04-04 04:00:00,27.5,19.7,30.33,SW,225,1.0,2.0,72,0.00,,,0.00,Wunderground v.1.15,2013-04-04 08:00:00,
2013-04-04 04:05:00,27.5,19.7,30.33,WSW,252,0.0,3.0,72,0.00,,,0.00,Wunderground v.1.15,2013-04-04 08:05:00,
2013-04-04 04:10:00,27.5,19.7,30.33,SSW,193,0.0,2.0,72,0.00,,,0.00,Wunderground v.1.15,2013-04-04 08:10:00,
2013-04-04 04:15:00,27.6,19.4,30.33,SSW,207,2.0,4.0,71,0.00,,,0.00,Wunderground v.1.15,2013-04-04 08:15:00,
2013-04-04 04:20:00,27.5,19.3,30.33,SW,219,1.0,2.0,71,0.00,,,0.00,Wunderground v.1.15,2013-04-04 08:20:00,
2013-04-04 04:25:00,27.5,19.3,30.33,WNW,299,1.0,4.0,71,0.00,,,0.00,Wunderground v.1.15,2013-04-04 08:25:00,
2013-04-04 04:30:00,27.5,19.3,30.33,WNW,298,2.0,2.0,71,0.00,,,0.00,Wunderground v.1.15,2013-04-04 08:30:00,
2013-04-04 04:35:00,27.4,19.2,30.33,WSW,248,0.0,3.0,71,0.00,,,0.00,Wunderground v.1.15,2013-04-04 08:35:00,
2013-04-04 04:40:00,27.2,19.4,30.33,WSW,248,0.0,1.0,72,0.00,,,0.00,Wunderground v.1.15,2013-04-04 08:40:00,
2013-04-04 04:45:00,27.1,19.3,30.33,WSW,248,0.0,1.0,72,0.00,,,0.00,Wunderground v.1.15,2013-04-04 08:45:00,
2013-04-04 04:50:00,27.0,19.2,30.32,SW,225,1.0,2.0,72,0.00,,,0.00,Wunderground v.1.15,2013-04-04 08:50:00,
2013-04-04 04:55:00,27.0,19.5,30.32,SW,225,1.0,3.0,73,0.00,,,0.00,Wunderground v.1.15,2013-04-04 08:55:00,
2013-04-04 05:01:00,27.0,19.5,30.32,SW,225,0.0,1.0,73,0.00,,,0.00,Wunderground v.1.15,2013-04-04 09:01:00,
2013-04-04 05:06:00,27.0,19.2,30.32,SW,225,0.0,2.0,72,0.00,,,0.00,Wunderground v.1.15,2013-04-04 09:06:00,
2013-04-04 05:11:00,26.9,19.1,30.33,SW,225,1.0,2.0,72,0.00,,,0.00,Wunderground v.1.15,2013-04-04 09:11:00,
2013-04-04 05:16:00,26.8,19.3,30.32,SW,225,1.0,3.0,73,0.00,,,0.00,Wunderground v.1.15,2013-04-04 09:16:00,
2013-04-04 05:21:00,26.8,19.3,30.32,SW,236,1.0,2.0,73,0.00,,,0.00,Wunderground v.1.15,2013-04-04 09:21:00,
2013-04-04 05:27:00,26.8,19.3,30.33,SW,236,1.0,2.0,73,0.00,,,0.00,Wunderground v.1.15,2013-04-04 09:27:00,
2013-04-04 05:32:00,26.8,19.3,30.33,SW,236,1.0,2.0,73,0.00,,,0.00,Wunderground v.1.15,2013-04-04 09:32:00,
2013-04-04 05:37:00,26.9,19.4,30.33,WSW,248,2.0,3.0,73,0.00,,,0.00,Wunderground v.1.15,2013-04-04 09:37:00,
2013-04-04 05:42:00,27.0,19.5,30.33,WSW,248,2.0,3.0,73,0.00,,,0.00,Wunderground v.1.15,2013-04-04 09:42:00,
2013-04-04 05:47:00,27.1,19.6,30.33,WSW,248,1.0,4.0,73,0.00,,,0.00,Wunderground v.1.15,2013-04-04 09:47:00,
2013-04-04 05:52:00,27.2,19.4,30.33,WNW,300,4.0,4.0,72,0.00,,,0.00,Wunderground v.1.15,2013-04-04 09:52:00,
2013-04-04 05:57:00,27.4,19.2,30.33,West,261,2.0,5.0,71,0.00,,,0.00,Wunderground v.1.15,2013-04-04 09:57:00,
2013-04-04 06:02:00,27.4,19.2,30.33,SW,223,2.0,6.0,71,0.00,,,0.00,Wunderground v.1.15,2013-04-04 10:02:00,
2013-04-04 06:07:00,27.6,19.1,30.33,SW,227,2.0,8.0,70,0.00,,,0.00,Wunderground v.1.15,2013-04-04 10:07:00,
2013-04-04 06:12:00,27.8,19.3,30.33,WNW,299,2.0,3.0,70,0.00,,,0.00,Wunderground v.1.15,2013-04-04 10:12:00,
2013-04-04 06:18:00,27.8,18.9,30.33,SSW,213,2.0,4.0,69,0.00,,,0.00,Wunderground v.1.15,2013-04-04 10:18:00,
2013-04-04 06:23:00,27.8,18.9,30.32,SW,221,2.0,3.0,69,0.00,,,0.00,Wunderground v.1.15,2013-04-04 10:23:00,
2013-04-04 06:28:00,27.7,18.8,30.32,SW,221,1.0,3.0,69,0.00,,,0.00,Wunderground v.1.15,2013-04-04 10:28:00,
2013-04-04 06:33:00,27.6,19.1,30.32,SW,221,2.0,2.0,70,0.00,,,0.00,Wunderground v.1.15,2013-04-04 10:33:00,
2013-04-04 06:38:00,27.4,18.9,30.32,SSW,204,3.0,3.0,70,0.00,,,0.00,Wunderground v.1.15,2013-04-04 10:38:00,
2013-04-04 06:43:00,27.3,18.8,30.32,SW,223,3.0,3.0,70,0.00,,,0.00,Wunderground v.1.15,2013-04-04 10:43:00,
2013-04-04 06:48:00,27.1,18.9,30.32,SW,218,1.0,3.0,71,0.00,,,0.00,Wunderground v.1.15,2013-04-04 10:48:00,
2013-04-04 06:53:00,27.0,18.8,30.32,SSW,207,3.0,3.0,71,0.00,,,0.00,Wunderground v.1.15,2013-04-04 10:53:00,
2013-04-04 06:58:00,26.9,19.1,30.32,SSW,200,2.0,4.0,72,0.00,,,0.00,Wunderground v.1.15,2013-04-04 10:58:00,
2013-04-04 07:03:00,27.1,19.3,30.32,SSW,192,2.0,4.0,72,0.00,,,0.00,Wunderground v.1.15,2013-04-04 11:03:00,
2013-04-04 07:08:00,27.1,19.3,30.32,SSW,195,2.0,4.0,72,0.00,,,0.00,Wunderground v.1.15,2013-04-04 11:08:00,
2013-04-04 07:13:00,27.2,19.4,30.32,SSW,195,1.0,3.0,72,0.00,,,0.00,Wunderground v.1.15,2013-04-04 11:13:00,
2013-04-04 07:18:00,27.3,19.5,30.32,SSW,207,1.0,5.0,72,0.00,,,0.00,Wunderground v.1.15,2013-04-04 11:18:00,
2013-04-04 07:23:00,27.4,19.6,30.32,SSW,197,2.0,4.0,72,0.00,,,0.00,Wunderground v.1.15,2013-04-04 11:23:00,
2013-04-04 07:28:00,27.5,19.7,30.32,SSW,206,2.0,4.0,72,0.00,,,0.00,Wunderground v.1.15,2013-04-04 11:28:00,
2013-04-04 07:33:00,27.6,19.8,30.32,South,190,2.0,4.0,72,0.00,,,0.00,Wunderground v.1.15,2013-04-04 11:33:00,
2013-04-04 07:38:00,27.8,19.9,30.31,SSW,197,1.0,4.0,72,0.00,,,0.00,Wunderground v.1.15,2013-04-04 11:38:00,
2013-04-04 07:43:00,28.0,20.1,30.31,South,184,1.0,4.0,72,0.00,,,0.00,Wunderground v.1.15,2013-04-04 11:43:00,
2013-04-04 07:48:00,28.1,20.6,30.32,SW,234,1.0,4.0,73,0.00,,,0.00,Wunderground v.1.15,2013-04-04 11:48:00,
2013-04-04 07:53:00,28.4,20.5,30.32,WSW,243,2.0,4.0,72,0.00,,,0.00,Wunderground v.1.15,2013-04-04 11:53:00,
2013-04-04 07:58:00,28.7,20.8,30.32,South,184,2.0,5.0,72,0.00,,,0.00,Wunderground v.1.15,2013-04-04 11:58:00,
2013-04-04 08:03:00,28.9,21.0,30.32,SSW,196,2.0,4.0,72,0.00,,,0.00,Wunderground v.1.15,2013-04-04 12:03:00,
2013-04-04 08:09:00,29.3,21.4,30.32,West,261,3.0,5.0,72,0.00,,,0.00,Wunderground v.1.15,2013-04-04 12:09:00,
2013-04-04 08:14:00,29.6,21.3,30.31,SW,223,4.0,5.0,71,0.00,,,0.00,Wunderground v.1.15,2013-04-04 12:14:00,
2013-04-04 08:19:00,29.9,21.3,30.31,SSW,213,2.0,6.0,70,0.00,,,0.00,Wunderground v.1.15,2013-04-04 12:19:00,
2013-04-04 08:24:00,30.2,21.6,30.31,WSW,239,3.0,5.0,70,0.00,,,0.00,Wunderground v.1.15,2013-04-04 12:24:00,
2013-04-04 08:29:00,30.5,21.5,30.31,SW,228,4.0,8.0,69,0.00,,,0.00,Wunderground v.1.15,2013-04-04 12:29:00,
2013-04-04 08:34:00,30.8,21.5,30.31,West,261,5.0,6.0,68,0.00,,,0.00,Wunderground v.1.15,2013-04-04 12:34:00,
2013-04-04 08:39:00,31.1,21.4,30.31,SW,223,3.0,6.0,67,0.00,,,0.00,Wunderground v.1.15,2013-04-04 12:39:00,
2013-04-04 08:44:00,31.4,22.1,30.31,NNE,19,2.0,7.0,68,0.00,,,0.00,Wunderground v.1.15,2013-04-04 12:44:00,
2013-04-04 08:49:00,31.7,22.0,30.31,NW,309,6.0,7.0,67,0.00,,,0.00,Wunderground v.1.15,2013-04-04 12:49:00,
2013-04-04 08:54:00,32.0,21.9,30.31,SW,223,3.0,8.0,66,0.00,,,0.00,Wunderground v.1.15,2013-04-04 12:54:00,
2013-04-04 09:00:00,32.4,21.9,30.31,SSW,210,4.0,8.0,65,0.00,,,0.00,Wunderground v.1.15,2013-04-04 13:00:00,
2013-04-04 09:05:00,32.8,22.3,30.31,SSW,209,3.0,7.0,65,0.00,,,0.00,Wunderground v.1.15,2013-04-04 13:05:00,
2013-04-04 09:10:00,33.3,22.4,30.31,WSW,237,4.0,4.0,64,0.00,,,0.00,Wunderground v.1.15,2013-04-04 13:10:00,
2013-04-04 09:15:00,33.6,22.3,30.31,West,281,3.0,6.0,63,0.00,,,0.00,Wunderground v.1.15,2013-04-04 13:15:00,
2013-04-04 09:20:00,33.7,22.1,30.31,SW,227,5.0,7.0,62,0.00,,,0.00,Wunderground v.1.15,2013-04-04 13:20:00,
2013-04-04 09:25:00,33.8,22.1,30.30,SW,234,3.0,7.0,62,0.00,,,0.00,Wunderground v.1.15,2013-04-04 13:25:00,
2013-04-04 09:30:00,34.2,22.5,30.30,SW,234,4.0,5.0,62,0.00,,,0.00,Wunderground v.1.15,2013-04-04 13:30:00,
2013-04-04 09:35:00,34.5,22.0,30.29,WSW,247,4.0,6.0,60,0.00,,,0.00,Wunderground v.1.15,2013-04-04 13:35:00,
2013-04-04 09:40:00,35.0,22.5,30.29,SSW,199,2.0,4.0,60,0.00,,,0.00,Wunderground v.1.15,2013-04-04 13:40:00,
2013-04-04 09:45:00,35.3,22.4,30.28,West,262,4.0,8.0,59,0.00,,,0.00,Wunderground v.1.15,2013-04-04 13:45:00,
2013-04-04 09:50:00,35.4,22.1,30.28,SW,227,2.0,4.0,58,0.00,,,0.00,Wunderground v.1.15,2013-04-04 13:50:00,
2013-04-04 09:55:00,35.7,22.8,30.28,SSW,198,5.0,7.0,59,0.00,,,0.00,Wunderground v.1.15,2013-04-04 13:55:00,
2013-04-04 10:00:00,36.0,23.0,30.28,SSW,209,2.0,3.0,59,0.00,,,0.00,Wunderground v.1.15,2013-04-04 14:00:00,
2013-04-04 10:05:00,36.3,22.5,30.28,SSW,200,2.0,6.0,57,0.00,,,0.00,Wunderground v.1.15,2013-04-04 14:05:00,
2013-04-04 10:11:00,36.6,22.8,30.27,SSW,213,0.0,5.0,57,0.00,,,0.00,Wunderground v.1.15,2013-04-04 14:11:00,
2013-04-04 10:17:00,36.8,21.7,30.27,SW,234,3.0,6.0,54,0.00,,,0.00,Wunderground v.1.15,2013-04-04 14:17:00,
2013-04-04 10:22:00,37.3,22.2,30.27,WSW,241,3.0,5.0,54,0.00,,,0.00,Wunderground v.1.15,2013-04-04 14:22:00,
2013-04-04 10:27:00,37.3,21.3,30.26,SSW,201,3.0,7.0,52,0.00,,,0.00,Wunderground v.1.15,2013-04-04 14:27:00,
2013-04-04 10:32:00,37.8,21.3,30.26,SSW,200,4.0,8.0,51,0.00,,,0.00,Wunderground v.1.15,2013-04-04 14:32:00,
2013-04-04 10:37:00,37.7,21.2,30.26,SSW,194,6.0,8.0,51,0.00,,,0.00,Wunderground v.1.15,2013-04-04 14:37:00,
2013-04-04 10:42:00,38.2,22.6,30.26,SSW,213,3.0,5.0,53,0.00,,,0.00,Wunderground v.1.15,2013-04-04 14:42:00,
2013-04-04 10:47:00,38.9,22.3,30.25,SW,229,3.0,5.0,51,0.00,,,0.00,Wunderground v.1.15,2013-04-04 14:47:00,
2013-04-04 10:52:00,39.6,22.0,30.25,SSW,209,4.0,6.0,49,0.00,,,0.00,Wunderground v.1.15,2013-04-04 14:52:00,
2013-04-04 10:57:00,39.4,20.3,30.25,South,182,1.0,8.0,46,0.00,,,0.00,Wunderground v.1.15,2013-04-04 14:57:00,
2013-04-04 11:02:00,40.0,20.9,30.25,West,259,4.0,9.0,46,0.00,,,0.00,Wunderground v.1.15,2013-04-04 15:02:00,
2013-04-04 11:07:00,40.0,19.8,30.24,SW,220,2.0,9.0,44,0.00,,,0.00,Wunderground v.1.15,2013-04-04 15:07:00,
2013-04-04 11:13:00,40.1,20.4,30.24,South,178,4.0,6.0,45,0.00,,,0.00,Wunderground v.1.15,2013-04-04 15:13:00,
2013-04-04 11:18:00,40.6,21.4,30.24,SSW,206,4.0,10.0,46,0.00,,,0.00,Wunderground v.1.15,2013-04-04 15:18:00,
2013-04-04 11:23:00,41.1,20.8,30.23,SW,223,4.0,7.0,44,0.00,,,0.00,Wunderground v.1.15,2013-04-04 15:23:00,
2013-04-04 11:28:00,41.2,20.4,30.23,SSW,205,4.0,8.0,43,0.00,,,0.00,Wunderground v.1.15,2013-04-04 15:28:00,
2013-04-04 11:33:00,41.4,21.1,30.23,West,279,4.0,6.0,44,0.00,,,0.00,Wunderground v.1.15,2013-04-04 15:33:00,
2013-04-04 11:38:00,41.6,20.7,30.23,SW,214,3.0,8.0,43,0.00,,,0.00,Wunderground v.1.15,2013-04-04 15:38:00,
2013-04-04 11:43:00,42.1,21.2,30.23,NNW,348,3.0,6.0,43,0.00,,,0.00,Wunderground v.1.15,2013-04-04 15:43:00,
2013-04-04 11:48:00,42.3,20.8,30.22,WSW,254,5.0,8.0,42,0.00,,,0.00,Wunderground v.1.15,2013-04-04 15:48:00,
2013-04-04 11:53:00,42.5,21.0,30.22,SW,226,3.0,8.0,42,0.00,,,0.00,Wunderground v.1.15,2013-04-04 15:53:00,
2013-04-04 11:58:00,42.3,19.7,30.22,South,186,6.0,10.0,40,0.00,,,0.00,Wunderground v.1.15,2013-04-04 15:58:00,
2013-04-04 12:03:00,42.5,21.0,30.21,ESE,105,4.0,6.0,42,0.00,,,0.00,Wunderground v.1.15,2013-04-04 16:03:00,
2013-04-04 12:08:00,43.2,21.1,30.21,SW,218,1.0,9.0,41,0.00,,,0.00,Wunderground v.1.15,2013-04-04 16:08:00,
2013-04-04 12:13:00,43.3,20.0,30.20,South,182,5.0,8.0,39,0.00,,,0.00,Wunderground v.1.15,2013-04-04 16:13:00,
2013-04-04 12:18:00,43.3,21.1,30.20,SW,228,4.0,8.0,41,0.00,,,0.00,Wunderground v.1.15,2013-04-04 16:18:00,
2013-04-04 12:23:00,43.7,19.7,30.19,WSW,237,3.0,7.0,38,0.00,,,0.00,Wunderground v.1.15,2013-04-04 16:23:00,
2013-04-04 12:29:00,44.0,21.2,30.19,SW,235,3.0,7.0,40,0.00,,,0.00,Wunderground v.1.15,2013-04-04 16:29:00,
2013-04-04 12:34:00,44.2,19.5,30.18,SW,222,6.0,8.0,37,0.00,,,0.00,Wunderground v.1.15,2013-04-04 16:34:00,
2013-04-04 12:39:00,44.1,20.7,30.18,SSW,208,2.0,9.0,39,0.00,,,0.00,Wunderground v.1.15,2013-04-04 16:39:00,
2013-04-04 12:44:00,44.5,19.8,30.17,West,273,7.0,7.0,37,0.00,,,0.00,Wunderground v.1.15,2013-04-04 16:44:00,
2013-04-04 12:49:00,44.4,19.7,30.17,SSW,198,10.0,14.0,37,0.00,,,0.00,Wunderground v.1.15,2013-04-04 16:49:00,
2013-04-04 12:55:00,44.7,20.0,30.16,West,266,4.0,11.0,37,0.00,,,0.00,Wunderground v.1.15,2013-04-04 16:55:00,
2013-04-04 13:00:00,44.9,20.2,30.16,SW,223,5.0,11.0,37,0.00,,,0.00,Wunderground v.1.15,2013-04-04 17:00:00,
2013-04-04 13:05:00,45.7,20.2,30.15,WSW,238,4.0,9.0,36,0.00,,,0.00,Wunderground v.1.15,2013-04-04 17:05:00,
2013-04-04 13:10:00,46.3,20.1,30.15,SW,226,4.0,4.0,35,0.00,,,0.00,Wunderground v.1.15,2013-04-04 17:10:00,
2013-04-04 13:15:00,46.2,19.3,30.14,SW,236,3.0,13.0,34,0.00,,,0.00,Wunderground v.1.15,2013-04-04 17:15:00,
2013-04-04 13:20:00,46.8,21.9,30.14,South,169,5.0,5.0,37,0.00,,,0.00,Wunderground v.1.15,2013-04-04 17:20:00,
2013-04-04 13:25:00,47.3,21.0,30.14,SSW,212,7.0,7.0,35,0.00,,,0.00,Wunderground v.1.15,2013-04-04 17:25:00,
2013-04-04 13:30:00,47.5,21.2,30.14,WSW,253,8.0,10.0,35,0.00,,,0.00,Wunderground v.1.15,2013-04-04 17:30:00,
2013-04-04 13:35:00,47.9,20.8,30.13,WSW,238,5.0,9.0,34,0.00,,,0.00,Wunderground v.1.15,2013-04-04 17:35:00,
2013-04-04 13:40:00,48.5,21.4,30.13,West,273,1.0,4.0,34,0.00,,,0.00,Wunderground v.1.15,2013-04-04 17:40:00,
2013-04-04 13:45:00,48.7,22.2,30.12,SSW,200,1.0,10.0,35,0.00,,,0.00,Wunderground v.1.15,2013-04-04 17:45:00,
2013-04-04 13:50:00,49.2,22.0,30.12,SSW,199,2.0,4.0,34,0.00,,,0.00,Wunderground v.1.15,2013-04-04 17:50:00,
2013-04-04 13:55:00,49.5,21.5,30.11,South,186,10.0,11.0,33,0.00,,,0.00,Wunderground v.1.15,2013-04-04 17:55:00,
2013-04-04 14:00:00,49.3,20.6,30.11,WNW,284,6.0,6.0,32,0.00,,,0.00,Wunderground v.1.15,2013-04-04 18:00:00,
2013-04-04 14:05:00,49.2,21.3,30.10,SW,215,2.0,9.0,33,0.00,,,0.00,Wunderground v.1.15,2013-04-04 18:05:00,
2013-04-04 14:10:00,49.8,21.8,30.10,WSW,252,3.0,5.0,33,0.00,,,0.00,Wunderground v.1.15,2013-04-04 18:10:00,
2013-04-04 14:15:00,50.7,21.1,30.09,West,277,7.0,7.0,31,0.00,,,0.00,Wunderground v.1.15,2013-04-04 18:15:00,
2013-04-04 14:20:00,50.6,21.8,30.09,SW,232,5.0,7.0,32,0.00,,,0.00,Wunderground v.1.15,2013-04-04 18:20:00,
2013-04-04 14:25:00,50.7,21.1,30.09,SW,219,6.0,9.0,31,0.00,,,0.00,Wunderground v.1.15,2013-04-04 18:25:00,
2013-04-04 14:30:00,50.9,21.3,30.08,SSW,199,2.0,7.0,31,0.00,,,0.00,Wunderground v.1.15,2013-04-04 18:30:00,
2013-04-04 14:35:00,50.5,21.7,30.08,SW,226,4.0,10.0,32,0.00,,,0.00,Wunderground v.1.15,2013-04-04 18:35:00,
2013-04-04 14:40:00,50.9,22.1,30.08,WSW,244,3.0,7.0,32,0.00,,,0.00,Wunderground v.1.15,2013-04-04 18:40:00,
2013-04-04 14:45:00,51.2,23.0,30.07,SW,236,4.0,12.0,33,0.00,,,0.00,Wunderground v.1.15,2013-04-04 18:45:00,
2013-04-04 14:50:00,51.4,21.0,30.07,SSW,202,3.0,7.0,30,0.00,,,0.00,Wunderground v.1.15,2013-04-04 18:50:00,
2013-04-04 14:55:00,51.1,20.7,30.07,WSW,255,3.0,7.0,30,0.00,,,0.00,Wunderground v.1.15,2013-04-04 18:55:00,
2013-04-04 15:00:00,51.2,22.3,30.06,SSW,207,7.0,7.0,32,0.00,,,0.00,Wunderground v.1.15,2013-04-04 19:00:00,
2013-04-04 15:05:00,51.7,22.0,30.06,South,189,2.0,8.0,31,0.00,,,0.00,Wunderground v.1.15,2013-04-04 19:05:00,
2013-04-04 15:10:00,52.3,21.7,30.05,West,275,6.0,6.0,30,0.00,,,0.00,Wunderground v.1.15,2013-04-04 19:10:00,
2013-04-04 15:15:00,52.3,22.5,30.05,SE,144,2.0,12.0,31,0.00,,,0.00,Wunderground v.1.15,2013-04-04 19:15:00,
2013-04-04 15:20:00,52.5,21.1,30.05,South,182,6.0,6.0,29,0.00,,,0.00,Wunderground v.1.15,2013-04-04 19:20:00,
2013-04-04 15:25:00,53.0,19.9,30.04,WSW,240,4.0,8.0,27,0.00,,,0.00,Wunderground v.1.15,2013-04-04 19:25:00,
2013-04-04 15:30:00,53.0,20.7,30.04,West,259,7.0,9.0,28,0.00,,,0.00,Wunderground v.1.15,2013-04-04 19:30:00,
2013-04-04 15:36:00,52.8,20.5,30.03,South,189,6.0,10.0,28,0.00,,,0.00,Wunderground v.1.15,2013-04-04 19:36:00,
2013-04-04 15:41:00,52.7,18.7,30.03,West,265,9.0,9.0,26,0.00,,,0.00,Wunderground v.1.15,2013-04-04 19:41:00,
2013-04-04 15:46:00,53.5,21.2,30.03,SSW,202,3.0,10.0,28,0.00,,,0.00,Wunderground v.1.15,2013-04-04 19:46:00,
2013-04-04 15:51:00,54.1,21.7,30.02,WSW,255,8.0,9.0,28,0.00,,,0.00,Wunderground v.1.15,2013-04-04 19:51:00,
2013-04-04 15:57:00,53.6,19.5,30.01,SSW,209,5.0,11.0,26,0.00,,,0.00,Wunderground v.1.15,2013-04-04 19:57:00,
2013-04-04 16:02:00,54.1,19.9,30.01,WNW,282,4.0,10.0,26,0.00,,,0.00,Wunderground v.1.15,2013-04-04 20:02:00,
2013-04-04 16:07:00,54.1,19.9,30.01,WSW,237,7.0,11.0,26,0.00,,,0.00,Wunderground v.1.15,2013-04-04 20:07:00,
2013-04-04 16:12:00,54.6,20.4,30.01,WSW,255,6.0,8.0,26,0.00,,,0.00,Wunderground v.1.15,2013-04-04 20:12:00,
2013-04-04 16:17:00,55.0,20.7,30.00,West,261,7.0,13.0,26,0.00,,,0.00,Wunderground v.1.15,2013-04-04 20:17:00,
2013-04-04 16:22:00,55.1,20.8,30.00,SSE,165,1.0,6.0,26,0.00,,,0.00,Wunderground v.1.15,2013-04-04 20:22:00,
2013-04-04 16:27:00,55.8,20.5,30.00,SW,220,7.0,12.0,25,0.00,,,0.00,Wunderground v.1.15,2013-04-04 20:27:00,
2013-04-04 16:32:00,55.4,21.0,30.00,SW,229,6.0,13.0,26,0.00,,,0.00,Wunderground v.1.15,2013-04-04 20:32:00,
2013-04-04 16:37:00,55.4,20.1,30.00,SW,219,4.0,13.0,25,0.00,,,0.00,Wunderground v.1.15,2013-04-04 20:37:00,
2013-04-04 16:42:00,55.4,21.0,29.99,South,184,7.0,7.0,26,0.00,,,0.00,Wunderground v.1.15,2013-04-04 20:42:00,
2013-04-04 16:47:00,55.9,21.5,29.99,WSW,244,4.0,9.0,26,0.00,,,0.00,Wunderground v.1.15,2013-04-04 20:47:00,
2013-04-04 16:52:00,56.2,20.8,29.99,WSW,250,4.0,7.0,25,0.00,,,0.00,Wunderground v.1.15,2013-04-04 20:52:00,
2013-04-04 16:57:00,56.0,19.7,29.99,West,263,9.0,9.0,24,0.00,,,0.00,Wunderground v.1.15,2013-04-04 20:57:00,
2013-04-04 17:02:00,55.8,18.5,29.99,West,263,5.0,8.0,23,0.00,,,0.00,Wunderground v.1.15,2013-04-04 21:02:00,
2013-04-04 17:07:00,55.7,18.4,29.99,West,269,4.0,16.0,23,0.00,,,0.00,Wunderground v.1.15,2013-04-04 21:07:00,
2013-04-04 17:12:00,55.5,18.2,29.99,West,273,4.0,11.0,23,0.00,,,0.00,Wunderground v.1.15,2013-04-04 21:12:00,
2013-04-04 17:17:00,55.5,19.2,29.98,South,190,3.0,11.0,24,0.00,,,0.00,Wunderground v.1.15,2013-04-04 21:17:00,
2013-04-04 17:22:00,55.8,20.5,29.98,WSW,245,5.0,7.0,25,0.00,,,0.00,Wunderground v.1.15,2013-04-04 21:22:00,
2013-04-04 17:28:00,56.0,18.7,29.98,NNW,347,12.0,12.0,23,0.00,,,0.00,Wunderground v.1.15,2013-04-04 21:28:00,
2013-04-04 17:33:00,55.3,25.1,29.98,NNE,19,6.0,8.0,31,0.00,,,0.00,Wunderground v.1.15,2013-04-04 21:33:00,
2013-04-04 17:38:00,54.1,24.1,29.97,North,5,5.0,13.0,31,0.00,,,0.00,Wunderground v.1.15,2013-04-04 21:38:00,
2013-04-04 17:43:00,53.2,24.1,29.98,NNE,32,8.0,11.0,32,0.00,,,0.00,Wunderground v.1.15,2013-04-04 21:43:00,
2013-04-04 17:48:00,52.4,23.4,29.98,North,355,5.0,13.0,32,0.00,,,0.00,Wunderground v.1.15,2013-04-04 21:48:00,
2013-04-04 17:53:00,51.8,24.3,29.98,North,11,4.0,8.0,34,0.00,,,0.00,Wunderground v.1.15,2013-04-04 21:53:00,
2013-04-04 17:58:00,51.5,23.3,29.97,NNE,25,3.0,8.0,33,0.00,,,0.00,Wunderground v.1.15,2013-04-04 21:58:00,
2013-04-04 18:03:00,50.9,22.8,29.97,NNE,17,7.0,11.0,33,0.00,,,0.00,Wunderground v.1.15,2013-04-04 22:03:00,
2013-04-04 18:08:00,50.0,23.4,29.97,NNW,340,5.0,11.0,35,0.00,,,0.00,Wunderground v.1.15,2013-04-04 22:08:00,
2013-04-04 18:13:00,49.4,23.5,29.98,NNE,22,6.0,8.0,36,0.00,,,0.00,Wunderground v.1.15,2013-04-04 22:13:00,
2013-04-04 18:18:00,49.4,23.5,29.98,North,360,0.0,8.0,36,0.00,,,0.00,Wunderground v.1.15,2013-04-04 22:18:00,
2013-04-04 18:23:00,49.6,23.0,29.98,North,5,7.0,8.0,35,0.00,,,0.00,Wunderground v.1.15,2013-04-04 22:23:00,
2013-04-04 18:28:00,49.5,23.6,29.98,North,360,5.0,8.0,36,0.00,,,0.00,Wunderground v.1.15,2013-04-04 22:28:00,
2013-04-04 18:33:00,49.3,23.4,29.98,NNW,348,2.0,5.0,36,0.00,,,0.00,Wunderground v.1.15,2013-04-04 22:33:00,
2013-04-04 18:38:00,49.3,23.4,29.98,NNE,33,4.0,5.0,36,0.00,,,0.00,Wunderground v.1.15,2013-04-04 22:38:00,
2013-04-04 18:43:00,49.2,23.4,29.97,NNE,26,3.0,5.0,36,0.00,,,0.00,Wunderground v.1.15,2013-04-04 22:43:00,
2013-04-04 18:48:00,48.6,22.8,29.98,North,5,1.0,6.0,36,0.00,,,0.00,Wunderground v.1.15,2013-04-04 22:48:00,
2013-04-04 18:53:00,48.0,22.9,29.98,NNE,16,4.0,5.0,37,0.00,,,0.00,Wunderground v.1.15,2013-04-04 22:53:00,
2013-04-04 18:58:00,47.4,22.4,29.97,NNE,13,3.0,6.0,37,0.00,,,0.00,Wunderground v.1.15,2013-04-04 22:58:00,
2013-04-04 19:03:00,47.0,22.0,29.97,North,11,2.0,5.0,37,0.00,,,0.00,Wunderground v.1.15,2013-04-04 23:03:00,
2013-04-04 19:08:00,46.5,21.6,29.97,North,355,3.0,5.0,37,0.00,,,0.00,Wunderground v.1.15,2013-04-04 23:08:00,
2013-04-04 19:13:00,45.9,21.1,29.97,North,9,2.0,4.0,37,0.00,,,0.00,Wunderground v.1.15,2013-04-04 23:13:00,
2013-04-04 19:18:00,45.5,21.3,29.97,North,9,0.0,4.0,38,0.00,,,0.00,Wunderground v.1.15,2013-04-04 23:18:00,
2013-04-04 19:23:00,45.1,22.2,29.97,North,9,0.0,2.0,40,0.00,,,0.00,Wunderground v.1.15,2013-04-04 23:23:00,
2013-04-04 19:28:00,44.5,21.6,29.96,North,9,0.0,2.0,40,0.00,,,0.00,Wunderground v.1.15,2013-04-04 23:28:00,
2013-04-04 19:33:00,44.1,21.9,29.96,North,9,0.0,0.0,41,0.00,,,0.00,Wunderground v.1.15,2013-04-04 23:33:00,
2013-04-04 19:38:00,43.6,21.4,29.96,North,9,0.0,0.0,41,0.00,,,0.00,Wunderground v.1.15,2013-04-04 23:38:00,
2013-04-04 19:43:00,43.2,22.7,29.96,North,9,1.0,2.0,44,0.00,,,0.00,Wunderground v.1.15,2013-04-04 23:43:00,
2013-04-04 19:49:00,42.8,22.4,29.95,North,9,0.0,2.0,44,0.00,,,0.00,Wunderground v.1.15,2013-04-04 23:49:00,
2013-04-04 19:54:00,42.4,21.5,29.95,North,9,0.0,0.0,43,0.00,,,0.00,Wunderground v.1.15,2013-04-04 23:54:00,
2013-04-04 19:59:00,41.8,20.4,29.95,North,9,0.0,0.0,42,0.00,,,0.00,Wunderground v.1.15,2013-04-04 23:59:00,
2013-04-04 20:04:00,41.4,20.0,29.95,North,9,0.0,0.0,42,0.00,,,0.00,Wunderground v.1.15,2013-04-05 00:04:00,
2013-04-04 20:09:00,41.0,19.6,29.94,North,9,0.0,0.0,42,0.00,,,0.00,Wunderground v.1.15,2013-04-05 00:09:00,
2013-04-04 20:14:00,40.6,20.9,29.94,North,9,0.0,0.0,45,0.00,,,0.00,Wunderground v.1.15,2013-04-05 00:14:00,
2013-04-04 20:19:00,40.2,20.5,29.94,North,9,0.0,0.0,45,0.00,,,0.00,Wunderground v.1.15,2013-04-05 00:19:00,
2013-04-04 20:24:00,39.8,20.7,29.94,North,9,0.0,0.0,46,0.00,,,0.00,Wunderground v.1.15,2013-04-05 00:24:00,
2013-04-04 20:29:00,39.4,21.3,29.95,North,9,0.0,0.0,48,0.00,,,0.00,Wunderground v.1.15,2013-04-05 00:29:00,
2013-04-04 20:34:00,39.1,22.5,29.95,North,9,0.0,0.0,51,0.00,,,0.00,Wunderground v.1.15,2013-04-05 00:34:00,
2013-04-04 20:39:00,38.7,22.1,29.95,North,9,0.0,0.0,51,0.00,,,0.00,Wunderground v.1.15,2013-04-05 00:39:00,
2013-04-04 20:45:00,38.3,21.7,29.95,North,9,0.0,0.0,51,0.00,,,0.00,Wunderground v.1.15,2013-04-05 00:45:00,
2013-04-04 20:50:00,37.9,21.4,29.95,North,9,0.0,0.0,51,0.00,,,0.00,Wunderground v.1.15,2013-04-05 00:50:00,
2013-04-04 20:55:00,37.6,22.4,29.95,North,9,0.0,0.0,54,0.00,,,0.00,Wunderground v.1.15,2013-04-05 00:55:00,
2013-04-04 21:00:00,37.3,23.0,29.95,North,9,0.0,0.0,56,0.00,,,0.00,Wunderground v.1.15,2013-04-05 01:00:00,
2013-04-04 21:05:00,37.0,21.9,29.94,North,9,0.0,0.0,54,0.00,,,0.00,Wunderground v.1.15,2013-04-05 01:05:00,
2013-04-04 21:10:00,36.8,21.7,29.94,North,9,0.0,0.0,54,0.00,,,0.00,Wunderground v.1.15,2013-04-05 01:10:00,
2013-04-04 21:15:00,36.6,21.1,29.94,North,9,0.0,0.0,53,0.00,,,0.00,Wunderground v.1.15,2013-04-05 01:15:00,
2013-04-04 21:20:00,36.4,20.4,29.94,North,9,0.0,0.0,52,0.00,,,0.00,Wunderground v.1.15,2013-04-05 01:20:00,
2013-04-04 21:25:00,36.2,20.2,29.94,North,9,0.0,0.0,52,0.00,,,0.00,Wunderground v.1.15,2013-04-05 01:25:00,
2013-04-04 21:30:00,36.0,20.5,29.94,North,9,0.0,0.0,53,0.00,,,0.00,Wunderground v.1.15,2013-04-05 01:30:00,
2013-04-04 21:35:00,35.9,20.9,29.94,North,9,0.0,1.0,54,0.00,,,0.00,Wunderground v.1.15,2013-04-05 01:35:00,
2013-04-04 21:40:00,35.7,20.7,29.94,North,9,0.0,0.0,54,0.00,,,0.00,Wunderground v.1.15,2013-04-05 01:40:00,
2013-04-04 21:46:00,35.5,21.3,29.94,North,9,0.0,0.0,56,0.00,,,0.00,Wunderground v.1.15,2013-04-05 01:46:00,
2013-04-04 21:51:00,35.3,22.4,29.94,North,9,0.0,0.0,59,0.00,,,0.00,Wunderground v.1.15,2013-04-05 01:51:00,
2013-04-04 21:56:00,35.1,21.8,29.93,North,9,0.0,1.0,58,0.00,,,0.00,Wunderground v.1.15,2013-04-05 01:56:00,
2013-04-04 22:01:00,34.9,22.0,29.93,North,9,0.0,1.0,59,0.00,,,0.00,Wunderground v.1.15,2013-04-05 02:01:00,
2013-04-04 22:06:00,34.8,22.3,29.93,North,9,0.0,2.0,60,0.00,,,0.00,Wunderground v.1.15,2013-04-05 02:06:00,
2013-04-04 22:11:00,34.7,22.6,29.93,North,9,0.0,0.0,61,0.00,,,0.00,Wunderground v.1.15,2013-04-05 02:11:00,
2013-04-04 22:16:00,34.6,21.7,29.92,North,9,0.0,1.0,59,0.00,,,0.00,Wunderground v.1.15,2013-04-05 02:16:00,
2013-04-04 22:21:00,34.6,22.1,29.92,North,9,1.0,1.0,60,0.00,,,0.00,Wunderground v.1.15,2013-04-05 02:21:00,
2013-04-04 22:26:00,34.6,22.9,29.92,North,9,1.0,2.0,62,0.00,,,0.00,Wunderground v.1.15,2013-04-05 02:26:00,
2013-04-04 22:31:00,34.6,22.9,29.93,North,9,0.0,1.0,62,0.00,,,0.00,Wunderground v.1.15,2013-04-05 02:31:00,
2013-04-04 22:36:00,34.8,23.1,29.92,North,9,0.0,1.0,62,0.00,,,0.00,Wunderground v.1.15,2013-04-05 02:36:00,
2013-04-04 22:41:00,34.8,22.7,29.92,North,9,2.0,2.0,61,0.00,,,0.00,Wunderground v.1.15,2013-04-05 02:41:00,
2013-04-04 22:46:00,35.0,22.9,29.92,North,9,0.0,2.0,61,0.00,,,0.00,Wunderground v.1.15,2013-04-05 02:46:00,
2013-04-04 22:51:00,34.9,22.4,29.92,North,9,0.0,1.0,60,0.00,,,0.00,Wunderground v.1.15,2013-04-05 02:51:00,
2013-04-04 22:56:00,34.8,22.7,29.91,North,9,1.0,1.0,61,0.00,,,0.00,Wunderground v.1.15,2013-04-05 02:56:00,
2013-04-04 23:01:00,34.8,22.3,29.91,North,9,0.0,0.0,60,0.00,,,0.00,Wunderground v.1.15,2013-04-05 03:01:00,
2013-04-04 23:07:00,34.8,21.9,29.91,North,9,0.0,0.0,59,0.00,,,0.00,Wunderground v.1.15,2013-04-05 03:07:00,
2013-04-04 23:12:00,35.1,21.8,29.91,South,189,3.0,3.0,58,0.00,,,0.00,Wunderground v.1.15,2013-04-05 03:12:00,
2013-04-04 23:17:00,35.6,22.7,29.91,South,189,0.0,3.0,59,0.00,,,0.00,Wunderground v.1.15,2013-04-05 03:17:00,
2013-04-04 23:22:00,35.7,22.8,29.91,South,189,0.0,2.0,59,0.00,,,0.00,Wunderground v.1.15,2013-04-05 03:22:00,
2013-04-04 23:27:00,35.8,22.5,29.90,South,189,2.0,3.0,58,0.00,,,0.00,Wunderground v.1.15,2013-04-05 03:27:00,
2013-04-04 23:32:00,36.5,22.7,29.90,SSE,155,3.0,3.0,57,0.00,,,0.00,Wunderground v.1.15,2013-04-05 03:32:00,
2013-04-04 23:37:00,36.9,22.7,29.90,South,190,0.0,4.0,56,0.00,,,0.00,Wunderground v.1.15,2013-04-05 03:37:00,
2013-04-04 23:42:00,37.1,22.8,29.90,South,190,2.0,2.0,56,0.00,,,0.00,Wunderground v.1.15,2013-04-05 03:42:00,
2013-04-04 23:47:00,37.6,22.4,29.90,South,190,0.0,2.0,54,0.00,,,0.00,Wunderground v.1.15,2013-04-05 03:47:00,
2013-04-04 23:52:00,38.1,22.5,29.90,South,190,2.0,2.0,53,0.00,,,0.00,Wunderground v.1.15,2013-04-05 03:52:00,
2013-04-04 23:58:00,38.6,22.5,29.89,South,190,2.0,3.0,52,0.00,,,0.00,Wunderground v.1.15,2013-04-05 03:58:00,